Regional Weather Roundup
Issued by NWS

Home | Current Version | Previous Version | Graphics & Text | Print | Product List | Glossary On
Versions: 1 2 3 4 5 6 7 8 9 10 11 12 13 14 15 16 17 18 19 20 21 22 23 24 25 26 27 28 29 30 31 32 33 34 35 36 37 38 39 40 41 42 43 44 45 46 47 48 49 50
000
ASUS43 KMPX 232110
RWRMN
WEATHER ROUNDUP FOR MINNESOTA
NATIONAL WEATHER SERVICE TWIN CITIES/CHANHASSEN MN
400 PM CDT WED JUL 23 2014


NOTE: "FAIR" INDICATES FEW OR NO CLOUDS BELOW 12,000 FEET WITH NO
SIGNIFICANT WEATHER AND/OR OBSTRUCTIONS TO VISIBILITY. N/A MEANS
CURRENT SKY AND/OR WEATHER CONDITIONS ARE NOT AVAILABLE.

MNZ060>063-068>070-232200-
   Twin Cities Metro

CITY           SKY/WX    TMP DP  RH WIND       PRES   REMARKS
TWIN CITIES    PTSUNNY   83  49  30 NW8       30.20F
ST PAUL        PTSUNNY   80  53  39 MISG      30.20F
CRYSTAL        PTSUNNY   81  51  35 N14       30.20F
BLAINE         MOSUNNY   81  54  39 NW8       30.21F
LAKEVILLE      MOSUNNY   79  55  44 W7        30.21F
EDEN PRAIRIE   MOSUNNY   82  52  35 VRB7      30.20F
SOUTH ST PAUL  PTSUNNY   80  51  37 N8        30.20S
LAKE ELMO      FAIR      79  55  44 N8        30.22F
$$
MNZ001>005-007-008-013>017-022>024-027-028-232200-
   Northwest Minnesota

CITY           SKY/WX    TMP DP  RH WIND       PRES   REMARKS
BEMIDJI        MOSUNNY   75  53  47 NW9G17    30.25F
HALLOCK        SUNNY     73  52  46 NE5       30.26F
ROSEAU         SUNNY     73  57  56 NE3       30.26F
WARROAD        SUNNY     70  55  60 E8        30.28S
THIEF RVR FALL PTSUNNY   73  55  53 NW6       30.26F
CROOKSTON      SUNNY     73  57  56 NW8       30.27F
FOSSTON        MOSUNNY   73  57  56 N6        30.26F
DETROIT LAKES  MOSUNNY   75  57  53 N12       30.28S
MOORHEAD       SUNNY     75  61  60 CALM      30.26F
PARK RAPIDS    MOSUNNY   77  50  38 N9        30.25F
$$
MNZ006-009>011-018-025>026-232200-
   North Central Minnesota

CITY           SKY/WX    TMP DP  RH WIND       PRES   REMARKS
BAUDETTE       SUNNY     73  52  47 N8        30.27F
FLAG ISLAND    SUNNY     70  48  46 N9        30.26F
INTL FALLS     PTSUNNY   71  50  47 N5        30.25F
WASKISH        PTSUNNY   75  55  50 CALM      30.24F
BIG FORK       SUNNY     75  52  43 NW3       30.25F
LONGVILLE      PTSUNNY   75  55  50 N3        30.24F
GRAND RAPIDS   SUNNY     73  52  46 NE6       30.24F
CRANE LAKE     MOSUNNY   70  48  46 CALM      30.27S
ORR            MOSUNNY   72  46  40 NW7       30.23F
COOK           MOSUNNY   70  52  52 N3        30.26S
$$
MNZ012-019>021-037-232200-
   Northeast Minnesota

CITY           SKY/WX    TMP DP  RH WIND       PRES   REMARKS
DULUTH         MOSUNNY   75  51  43 NE8       30.22F
ELY            PTSUNNY   70  48  46 N6        30.24F
HIBBING        PTSUNNY   76  51  41 N8        30.24F
EVELETH        MOSUNNY   72  48  43 N6        30.25F
DULUTH HARBOR  SUNNY     64  57  77 NE7       30.23S
TWO HARBORS    SUNNY     70  55  60 SE5       30.21F
SILVER BAY     SUNNY     68  57  68 SE6       30.22S
GRAND MARAIS     N/A     58  53  84 CALM      30.23F
G MARAIS ARPRT MOSUNNY   64  54  68 SE3       30.25S
$$
MNZ029>031-032-039>041-046>048-054>057-064-232200-
   West Central Minnesota

CITY           SKY/WX    TMP DP  RH WIND       PRES   REMARKS
FERGUS FALLS   PTSUNNY   79  54  41 N5        30.24F
WHEATON        PTSUNNY   75  55  50 CALM      30.26F
MORRIS         MOSUNNY   77  57  50 NE5       30.25S
ALEXANDRIA     PTSUNNY   77  54  44 N8        30.27F
ELBOW LAKE     FAIR      74  57  55 N7        30.26S
WADENA         MOSUNNY   75  57  53 N10       30.25F
GLENWOOD       MOSUNNY   75  55  50 N6        30.26F
APPLETON       SUNNY     82  48  30 CALM      30.24F
BENSON         MOSUNNY   81  55  41 NE9       30.25S
ORTONVILLE     PTSUNNY   79  54  41 CALM      30.25F
MADISON        MOSUNNY   81  55  41 N6        30.24F
WILLMAR        FAIR      81  46  30 N5        30.25F
$$
MNZ033>034-036-042>043-049>051-058-059-232200-
   Central Minnesota

CITY           SKY/WX    TMP DP  RH WIND       PRES   REMARKS
ST CLOUD       SUNNY     81  47  30 N12       30.23F
SAUK CENTRE    FAIR      75  53  45 NW5       30.25F
PAYNESVILLE    SUNNY     76  48  37 NW8       30.24F
AITKIN         CLOUDY    75  55  50 S3        30.22F
PINE RIVER     MOSUNNY   75  55  50 N8        30.27F
BRAINERD       SUNNY     75  49  39 N9        30.24F
STAPLES        MOSUNNY   79  52  38 N7        30.24F
LONG PRAIRIE   PTSUNNY   75  54  46 N5        30.25F
LITTLE FALLS   MOSUNNY   73  46  38 N3        30.23F
LITCHFIELD     SUNNY     81  52  36 NE9       30.24S
BUFFALO        MOSUNNY   79  49  35 NW7       30.23F
MAPLE LAKE     SUNNY     79  53  40 N9        30.24S
$$
MNZ037-044-045-052-053-232200-
   East Central Minnesota

CITY           SKY/WX    TMP DP  RH WIND       PRES   REMARKS
PRINCETON      SUNNY     81  54  39 NW6       30.23S
MORA           SUNNY     73  52  46 CALM      30.24S
CAMBRIDGE      MOSUNNY   79  57  47 NW3       30.20F
RUSH CITY      MOSUNNY   78  53  41 NW3       30.22F
MOOSE LAKE     MOSUNNY   77  54  44 N7        30.20F
HINCKLEY       MOCLDY    77  57  50 CALM      30.22F
CLOQUET        MOSUNNY   73  50  43 NW5       30.23F
MCGREGOR       SUNNY     77  54  44 CALM      30.23F
$$
MNZ071>073-080-081-089-090-097-098-232200-
   Southwest Minnesota

CITY           SKY/WX    TMP DP  RH WIND       PRES   REMARKS
MONTEVIDEO     MOSUNNY   84  54  34 NE5       30.25F
GRANITE FALLS  SUNNY     79  52  38 N3        30.25F
CANBY          SUNNY     80  54  40 E3        30.26F
MARSHALL       SUNNY     79  52  38 NE7       30.24F
REDWOOD FALLS  SUNNY     82  52  35 N8        30.23F
OLIVIA         SUNNY     79  50  36 N3        30.23F
PIPESTONE      SUNNY     79  50  36 NE5       30.26F
WINDOM         MOSUNNY   81  52  36 NE5       30.25F
WORTHINGTON    MOSUNNY   79  55  44 NE8       30.26F
JACKSON        MOSUNNY   79  54  41 NE5       30.25F
TRACY          SUNNY     79  52  38 CALM      30.25F
SLAYTON        MOSUNNY   77  51  40 CALM      30.26F
$$
MNZ065>067-074>077-082>085-091>093-232200-
   South Central Minnesota

CITY           SKY/WX    TMP DP  RH WIND       PRES   REMARKS
MANKATO        MOSUNNY   79  52  38 NE7       30.22F
NEW ULM        MOSUNNY   79  54  41 CALM      30.22F
ST JAMES       PTSUNNY   81  54  39 N5        30.24F
FAIRMONT       MOSUNNY   81  55  41 NE6       30.23F
GLENCOE        SUNNY     81  48  31 NW9       30.21F
FARIBAULT      MOSUNNY   82  45  26 N5        30.22F
OWATONNA       SUNNY     79  52  38 NW6       30.22F
WASECA         SUNNY     77  46  33 N3        30.24F
ALBERT LEA     MOSUNNY   81  54  39 N6        30.22F
$$
MNZ078>079-086>088-094>096-232200-
   Southeast Minnesota

CITY           SKY/WX    TMP DP  RH WIND       PRES   REMARKS
ROCHESTER      MOSUNNY   74  53  48 N6        30.23F
RED WING       MOSUNNY   81  48  32 N6        30.19S
STANTON        MOSUNNY   80  53  38 NW7       30.20S
DODGE CENTER   MOSUNNY   77  55  47 NW5       30.23F
WINONA         SUNNY     81  52  36 NW8       30.19F
AUSTIN         MOSUNNY   79  50  36 N10       30.22S
PRESTON        PTSUNNY   76  60  57 N7        30.21F
$$
ABBREVIATIONS USED IN REMARKS
   TC - TEMPERATURES IN CELSIUS
  WCI - WIND CHILL INDEX
   HX - HEAT INDEX
  VSB - VISIBILITY
$$


USA.gov is the U.S. government's official web portal to all federal, state and local government web resources and services.